CST,Max TemperatureF,Mean TemperatureF,Min TemperatureF,Max Dew PointF,MeanDew PointF,Min DewpointF,Max Humidity, Mean Humidity, Min Humidity, Max Sea Level PressureIn, Mean Sea Level PressureIn, Min Sea Level PressureIn, Max VisibilityMiles, Mean VisibilityMiles, Min VisibilityMiles, Max Wind SpeedMPH, Mean Wind SpeedMPH, Max Gust SpeedMPH,PrecipitationIn, CloudCover, Events, WindDirDegrees
2011-11-1,51,42,36,39,32,28,89,69,48,30.14,29.94,29.79,10,10,10,14,7,,0.01,3,,289
2011-11-2,46,35,25,28,24,19,88,69,40,30.32,30.25,30.15,10,10,10,15,6,20,0.00,0,,307
2011-11-3,51,34,19,26,18,15,89,59,26,30.31,30.25,30.14,10,10,10,14,5,,0.00,0,,201
2011-11-4,54,40,26,26,19,16,71,47,23,30.18,30.06,29.92,10,10,10,25,13,36,0.00,0,,162
2011-11-5,55,46,37,39,34,29,83,65,45,29.92,29.71,29.55,10,10,9,29,17,34,0.00,0,,156
2011-11-6,46,40,35,43,35,22,93,76,57,29.81,29.55,29.41,10,9,2,25,19,39,0.01,7,Rain,208
2011-11-7,39,31,23,25,23,19,85,66,55,30.24,30.08,29.84,10,10,10,26,17,36,0.00,5,,259
2011-11-8,46,32,17,28,20,16,96,71,34,30.26,30.20,30.12,10,8,1,10,2,,0.00,0,,192
2011-11-9,37,26,14,27,23,11,89,76,56,30.16,30.08,29.98,10,9,5,21,9,28,0.00,4,Snow,301
2011-11-10,34,29,24,27,24,19,86,78,56,30.10,30.02,29.88,10,9,4,20,13,25,0.00,6,Snow,301
2011-11-11,51,40,28,27,23,18,79,59,38,29.85,29.61,29.51,10,10,10,13,8,,0.00,2,,191
2011-11-12,54,40,25,27,24,22,88,58,32,29.52,29.34,29.11,10,10,10,13,6,,0.00,0,,153
2011-11-13,37,31,25,28,26,22,89,80,62,29.38,29.27,29.12,10,9,7,18,9,23,0.00,4,,267
2011-11-14,43,34,24,33,27,22,100,87,58,29.55,29.44,29.34,10,7,0,16,6,24,0.01,3,Fog-Rain-Snow,216
2011-11-15,37,28,19,31,25,17,100,86,67,29.90,29.62,29.52,10,6,0,28,9,43,0.04,6,Fog-Snow,268
2011-11-16,24,18,12,19,14,9,86,77,68,30.15,30.02,29.84,10,7,2,21,14,28,0.00,6,Snow,285
2011-11-17,24,15,6,10,8,3,88,70,53,30.18,30.06,29.80,10,10,8,12,7,,0.00,4,Snow,245
2011-11-18,27,24,19,25,20,9,93,80,53,29.83,29.68,29.60,10,6,0,17,6,,0.05,6,Fog-Snow,85
2011-11-19,19,14,10,16,12,5,88,81,73,30.27,29.98,29.76,10,10,9,18,11,25,0.00,7,,348
2011-11-20,19,8,-2,8,5,-5,91,77,57,30.42,30.32,30.21,10,10,10,8,5,,0.00,3,,226
2011-11-21,30,18,5,25,15,2,96,87,69,30.29,30.24,30.14,10,7,1,14,6,,0.00,3,,146
2011-11-22,36,31,26,32,29,25,100,91,81,30.21,30.06,29.97,8,4,0,14,9,,0.00,8,Fog,185
2011-11-23,50,38,26,32,29,25,100,86,50,30.05,29.97,29.86,10,5,1,12,7,,0.00,3,,186
2011-11-24,52,40,26,34,29,24,93,80,49,29.85,29.73,29.64,10,8,5,9,6,,0.00,0,,160
2011-11-25,39,32,24,34,30,23,100,83,73,29.75,29.69,29.63,10,9,3,13,4,,0.00,3,,63
2011-11-26,37,34,30,37,31,25,100,91,79,30.19,29.94,29.66,10,6,1,23,11,31,0.04,8,Rain-Snow,334
2011-11-27,30,24,19,25,21,17,93,79,69,30.27,30.20,30.10,10,10,10,21,11,29,0.00,6,,321
2011-11-28,44,32,21,30,22,16,92,73,49,30.34,30.10,29.96,10,10,10,15,10,22,0.00,0,,264
2011-11-29,36,22,9,18,13,5,88,67,34,30.42,30.28,29.96,10,10,10,8,4,,0.00,0,,215
2011-11-30,33,27,21,27,23,15,88,80,64,30.23,30.00,29.87,10,7,1,12,5,,0.00,7,Snow,16